GW2008 Weather Reports


time (UTC)temp
C
wind
direction
speed
KPH
gust
KPH
rain 1hr
cm
rain 24hr
cm
rain mn
cm
humidity
%
barometer
mb
20260506151000 19 257 9.7 11.3 0.00 0.00 0.00 43 990.7
20260506150456 18 223 1.6 1.6 0.00 0.00 0.00 43 990.6
20260506145953 18 226 1.6 3.2 0.00 0.00 0.00 44 990.5
20260506145449 18 225 6.4 8.0 0.00 0.00 0.00 44 990.6
20260506144947 18 249 8.0 11.3 0.00 0.00 0.00 44 990.5
20260506144444 18 229 1.6 3.2 0.00 0.00 0.00 44 990.5
20260506143942 18 264 4.8 8.0 0.00 0.00 0.00 44 990.5
20260506143438 18 221 3.2 4.8 0.00 0.00 0.00 44 990.4
20260506142937 17 229 3.2 3.2 0.00 0.00 0.00 45 990.3
20260506142435 18 259 8.0 9.7 0.00 0.00 0.00 44 990.4
20260506141932 18 218 3.2 3.2 0.00 0.00 0.00 44 990.0
20260506141430 17 235 1.6 3.2 0.00 0.00 0.00 44 990.3
20260506140929 17 220 1.6 1.6 0.00 0.00 0.00 44 990.2
20260506140425 17 226 0.0 1.6 0.00 0.00 0.00 45 990.4
20260506135922 17 245 1.6 1.6 0.00 0.00 0.00 46 990.0
20260506135419 18 227 0.0 0.0 0.00 0.00 0.00 44 990.1
20260506134915 17 219 0.0 0.0 0.00 0.00 0.00 45 989.8
20260506134411 17 219 0.0 0.0 0.00 0.00 0.00 47 990.0
20260506133908 16 219 0.0 0.0 0.00 0.00 0.00 48 989.9
20260506133405 16 221 0.0 0.0 0.00 0.00 0.00 49 989.6
20260506132902 15 220 0.0 0.0 0.00 0.00 0.00 50 989.7
20260506132359 15 220 0.0 0.0 0.00 0.00 0.00 50 989.8
20260506131857 15 221 0.0 0.0 0.00 0.00 0.00 51 989.7
20260506131353 15 221 0.0 0.0 0.00 0.00 0.00 51 989.6
20260506130850 15 221 0.0 0.0 0.00 0.00 0.00 50 989.6
20260506130346 15 220 0.0 0.0 0.00 0.00 0.00 50 989.7
20260506125845 15 222 0.0 0.0 0.00 0.00 0.00 50 989.5
20260506125343 15 223 0.0 0.0 0.00 0.00 0.00 50 989.4
20260506124841 15 228 1.6 1.6 0.00 0.00 0.00 50 989.4
20260506124337 15 237 0.0 1.6 0.00 0.00 0.00 50 989.3
20260506123835 15 227 0.0 0.0 0.00 0.00 0.00 50 989.3
20260506123333 15 228 0.0 0.0 0.00 0.00 0.00 49 988.9
20260506122830 15 241 0.0 0.0 0.00 0.00 0.00 49 989.1
20260506122327 15 228 0.0 0.0 0.00 0.00 0.00 49 989.1
20260506121825 15 227 0.0 0.0 0.00 0.00 0.00 49 988.9
20260506121322 16 226 0.0 0.0 0.00 0.00 0.00 48 988.8
20260506120819 16 233 1.6 1.6 0.00 0.00 0.00 48 989.0
20260506120317 16 228 0.0 0.0 0.00 0.00 0.00 47 988.9
20260506115814 16 237 0.0 1.6 0.00 0.00 0.00 47 988.6
20260506115313 16 234 1.6 1.6 0.00 0.00 0.00 47 988.8
20260506114810 16 244 1.6 1.6 0.00 0.00 0.00 47 988.7
20260506114308 16 232 0.0 1.6 0.00 0.00 0.00 47 988.7
20260506113806 16 229 0.0 0.0 0.00 0.00 0.00 47 988.5
20260506113303 16 238 1.6 1.6 0.00 0.00 0.00 46 988.7
20260506112759 17 227 1.6 3.2 0.00 0.00 0.00 45 988.5
20260506112257 17 238 1.6 1.6 0.00 0.00 0.00 44 988.6
20260506111754 18 227 1.6 1.6 0.00 0.00 0.00 43 988.5
20260506111252 18 226 3.2 3.2 0.00 0.00 0.00 43 988.6
20260506110749 18 218 6.4 8.0 0.00 0.00 0.00 43 988.5
20260506110247 18 209 8.0 9.7 0.00 0.00 0.00 43 988.6
20260506105743 18 225 8.0 9.7 0.00 0.00 0.00 43 988.4
20260506105240 18 244 4.8 4.8 0.00 0.00 0.00 43 988.6
20260506104737 18 227 0.0 0.0 0.00 0.00 0.00 44 988.5
20260506104235 18 220 3.2 3.2 0.00 0.00 0.00 43 988.6
20260506103732 18 220 1.6 3.2 0.00 0.00 0.00 43 988.6
20260506103229 18 213 6.4 8.0 0.00 0.00 0.00 43 988.5
20260506102727 18 234 6.4 8.0 0.00 0.00 0.00 43 988.4
20260506102225 18 228 6.4 8.0 0.00 0.00 0.00 43 988.4
20260506101721 18 236 1.6 3.2 0.00 0.00 0.00 43 988.2
20260506101218 18 236 4.8 8.0 0.00 0.00 0.00 43 988.3
20260506100716 18 229 3.2 4.8 0.00 0.00 0.00 43 988.3
20260506100214 18 231 6.4 8.0 0.00 0.00 0.00 43 988.1
20260506095712 18 220 1.6 3.2 0.00 0.00 0.00 43 988.2
20260506095209 18 230 11.3 12.9 0.00 0.00 0.00 43 988.1
20260506094706 18 235 8.0 11.3 0.00 0.00 0.00 43 988.1
20260506094204 18 240 9.7 12.9 0.00 0.00 0.00 43 987.9
20260506093702 18 226 4.8 4.8 0.00 0.00 0.00 43 988.0
20260506093159 18 224 1.6 3.2 0.00 0.00 0.00 44 987.8
20260506092656 18 220 3.2 3.2 0.00 0.00 0.00 44 987.9
20260506092154 18 227 4.8 4.8 0.00 0.00 0.00 44 988.0
20260506091652 18 229 3.2 3.2 0.00 0.00 0.00 43 987.9
20260506091149 18 232 6.4 8.0 0.00 0.00 0.00 43 987.8
20260506090647 18 234 6.4 8.0 0.00 0.00 0.00 43 987.9
20260506090143 18 233 6.4 9.7 0.00 0.00 0.00 43 987.9
20260506085640 18 230 3.2 3.2 0.00 0.00 0.00 43 987.7
20260506085136 18 236 8.0 11.3 0.00 0.00 0.00 43 987.9
20260506084633 18 219 8.0 9.7 0.00 0.00 0.00 43 987.7
20260506084130 18 231 8.0 11.3 0.00 0.00 0.00 43 987.8
20260506083626 18 251 8.0 9.7 0.00 0.00 0.00 43 987.9
20260506083124 18 229 8.0 9.7 0.00 0.00 0.00 44 987.6
20260506082621 18 233 4.8 8.0 0.00 0.00 0.00 44 987.7
20260506082116 18 242 9.7 12.9 0.00 0.00 0.00 44 987.5
20260506081615 18 225 4.8 8.0 0.00 0.00 0.00 44 987.9
20260506081112 18 222 6.4 9.7 0.00 0.00 0.00 44 987.7
20260506080610 18 222 6.4 8.0 0.00 0.00 0.00 44 987.6
20260506080106 18 229 6.4 8.0 0.00 0.00 0.00 44 988.0
20260506073050 18 229 1.6 1.6 0.00 0.00 0.00 45 987.8
20260506072547 18 225 3.2 3.2 0.00 0.00 0.00 44 987.9
20260506072044 18 237 6.4 8.0 0.00 0.00 0.00 44 987.6
20260506071542 18 239 4.8 8.0 0.00 0.00 0.00 44 987.7
20260506071039 18 233 4.8 9.7 0.00 0.00 0.00 44 987.5
20260506070536 18 223 3.2 4.8 0.00 0.00 0.00 44 987.5
20260506062514 19 225 1.6 1.6 0.00 0.00 0.00 42 987.3
20260506062010 19 225 3.2 3.2 0.00 0.00 0.00 42 987.5
20260506061506 19 220 3.2 4.8 0.00 0.00 0.00 42 987.3
20260506061004 19 244 3.2 4.8 0.00 0.00 0.00 42 987.5
20260506060502 19 232 4.8 8.0 0.00 0.00 0.00 42 987.4
20260506050931 20 250 0.0 1.6 0.00 0.00 0.00 40 987.1
20260506050429 20 226 1.6 3.2 0.00 0.00 0.00 40 987.1
20260506044919 20 231 3.2 4.8 0.00 0.00 0.00 40 986.9
20260506044417 20 242 4.8 4.8 0.00 0.00 0.00 40 986.8
20260506043914 20 233 3.2 4.8 0.00 0.00 0.00 39 986.7
20260506043411 20 224 0.0 1.6 0.00 0.00 0.00 39 986.8
20260506042909 20 233 1.6 3.2 0.00 0.00 0.00 39 986.8
20260506042408 20 227 4.8 4.8 0.00 0.00 0.00 39 986.8
20260506041906 20 232 3.2 3.2 0.00 0.00 0.00 39 986.5
20260506041403 21 241 1.6 3.2 0.00 0.00 0.00 39 986.4
20260506040900 21 229 3.2 4.8 0.00 0.00 0.00 38 986.5
20260506040358 21 233 8.0 8.0 0.00 0.00 0.00 38 986.4
20260506035853 21 248 4.8 8.0 0.00 0.00 0.00 37 986.2
20260506035351 21 235 3.2 4.8 0.00 0.00 0.00 37 986.1
20260506034848 21 224 1.6 3.2 0.00 0.00 0.00 38 986.0
20260506034345 21 249 4.8 8.0 0.00 0.00 0.00 37 986.0
20260506033842 21 255 3.2 3.2 0.00 0.00 0.00 37 986.0
20260506033339 21 231 4.8 4.8 0.00 0.00 0.00 37 986.2
20260506032836 21 224 0.0 0.0 0.00 0.00 0.00 37 985.9
20260506032333 21 230 8.0 9.7 0.00 0.00 0.00 36 986.0
20260506031830 21 228 3.2 3.2 0.00 0.00 0.00 36 985.7
20260506031327 22 226 3.2 4.8 0.00 0.00 0.00 36 985.5
20260506030825 22 240 6.4 9.7 0.00 0.00 0.00 35 985.6
20260506030323 22 234 4.8 4.8 0.00 0.00 0.00 35 985.5
20260506025819 22 245 6.4 9.7 0.00 0.00 0.00 35 985.5
20260506025315 22 246 4.8 4.8 0.00 0.00 0.00 35 985.5
20260506024813 22 224 8.0 12.9 0.00 0.00 0.00 34 985.5
20260506024309 22 233 6.4 8.0 0.00 0.00 0.00 34 985.5
20260506023805 22 247 4.8 8.0 0.00 0.00 0.00 34 985.3
20260506023303 22 236 4.8 8.0 0.00 0.00 0.00 34 985.1
20260506022759 22 246 6.4 8.0 0.00 0.00 0.00 34 985.3
20260506022257 22 236 9.7 14.5 0.00 0.00 0.00 34 985.3
20260506021755 22 297 3.2 3.2 0.00 0.00 0.00 34 985.0
20260506021252 22 242 4.8 9.7 0.00 0.00 0.00 34 984.8
20260506020748 22 248 11.3 12.9 0.00 0.00 0.00 34 984.7
20260506020247 23 219 8.0 14.5 0.00 0.00 0.00 34 984.7
20260506015744 23 248 11.3 16.1 0.00 0.00 0.00 34 984.9
20260506015241 23 212 12.9 14.5 0.00 0.00 0.00 33 984.7
20260506014738 23 247 9.7 12.9 0.00 0.00 0.00 33 984.7
20260506014234 23 247 8.0 14.5 0.00 0.00 0.00 32 984.6
20260506013732 23 261 3.2 4.8 0.00 0.00 0.00 31 984.5
20260506013229 23 227 4.8 8.0 0.00 0.00 0.00 32 984.6
20260506012725 24 270 9.7 14.5 0.00 0.00 0.00 31 984.6
20260506012222 23 238 12.9 20.9 0.00 0.00 0.00 32 984.3
20260506011719 24 232 12.9 16.1 0.00 0.00 0.00 32 984.4
20260506011215 24 216 11.3 16.1 0.00 0.00 0.00 31 984.4
20260506010714 24 250 11.3 14.5 0.00 0.00 0.00 31 984.4
20260506010211 24 236 8.0 11.3 0.00 0.00 0.00 31 984.2
20260506005708 25 214 9.7 11.3 0.00 0.00 0.00 31 984.2
20260506005205 25 243 4.8 9.7 0.00 0.00 0.00 30 984.3
20260506004701 25 228 9.7 12.9 0.00 0.00 0.00 31 984.1
20260506004159 25 295 8.0 17.7 0.00 0.00 0.00 31 984.1
20260506003654 25 300 6.4 9.7 0.00 0.00 0.00 30 984.0
20260506003151 25 272 6.4 9.7 0.00 0.00 0.00 30 984.2
20260506002647 25 252 8.0 11.3 0.00 0.00 0.00 31 983.9
20260506002143 25 239 12.9 20.9 0.00 0.00 0.00 31 983.9
20260506001639 25 215 8.0 9.7 0.00 0.00 0.00 31 984.0
20260506001137 25 227 12.9 20.9 0.00 0.00 0.00 32 983.8
20260506000634 25 240 4.8 8.0 0.00 0.00 0.00 32 983.9
20260506000131 25 217 6.4 11.3 0.00 0.00 0.00 32 984.0
20260505235629 25 255 14.5 16.1 0.00 0.00 0.00 33 983.8
20260505235125 25 233 6.4 12.9 0.00 0.00 0.00 32 983.8
20260505234617 25 242 8.0 11.3 0.00 0.00 0.00 30 983.7
20260505234114 25 222 17.7 24.1 0.00 0.00 0.00 31 983.7
20260505233612 25 234 4.8 11.3 0.00 0.00 0.00 31 983.7
20260505233109 25 217 8.0 11.3 0.00 0.00 0.00 31 983.8
20260505232606 25 248 11.3 17.7 0.00 0.00 0.00 31 983.6
20260505232104 25 249 11.3 16.1 0.00 0.00 0.00 29 984.0
20260505231600 25 245 11.3 14.5 0.00 0.00 0.00 29 983.7
20260505231059 25 237 8.0 14.5 0.00 0.00 0.00 30 983.9
20260505230556 25 234 12.9 20.9 0.00 0.00 0.00 30 983.8
20260505230052 25 260 12.9 16.1 0.00 0.00 0.00 31 984.0
20260505225549 25 200 4.8 8.0 0.00 0.00 0.00 33 984.0
20260505225045 25 236 6.4 9.7 0.00 0.00 0.00 33 984.0
20260505224537 25 218 14.5 20.9 0.00 0.00 0.00 32 983.9
20260505224034 25 237 12.9 17.7 0.00 0.00 0.00 31 984.1
20260505223531 25 224 4.8 4.8 0.00 0.00 0.00 31 984.3
20260505223027 25 261 6.4 14.5 0.00 0.00 0.00 32 984.3
20260505222524 25 213 6.4 8.0 0.00 0.00 0.00 33 984.5
20260505222020 25 237 12.9 14.5 0.00 0.00 0.00 32 984.6
20260505221517 25 282 8.0 12.9 0.00 0.00 0.00 33 984.3
20260505221013 25 224 3.2 4.8 0.00 0.00 0.00 32 984.6
20260505220511 23 234 6.4 8.0 0.00 0.00 0.00 34 984.5
20260505220009 24 256 11.3 14.5 0.00 0.00 0.00 34 984.8
20260505215506 24 224 8.0 11.3 0.00 0.00 0.00 35 984.6
20260505215003 24 276 4.8 8.0 0.00 0.00 0.00 35 984.8
20260505214501 24 229 11.3 12.9 0.00 0.00 0.00 34 984.9
20260505213953 24 219 8.0 12.9 0.00 0.00 0.00 34 985.0
20260505213451 25 291 8.0 11.3 0.00 0.00 0.00 34 984.9
20260505212947 25 219 4.8 11.3 0.00 0.00 0.00 33 984.8
20260505212443 24 245 8.0 9.7 0.00 0.00 0.00 34 985.1
20260505211940 24 289 8.0 12.9 0.00 0.00 0.00 35 985.0
20260505211438 24 233 12.9 14.5 0.00 0.00 0.00 35 985.3
20260505210934 24 241 4.8 8.0 0.00 0.00 0.00 35 985.3
20260505210431 23 270 4.8 8.0 0.00 0.00 0.00 35 985.1
20260505205927 24 235 8.0 12.9 0.00 0.00 0.00 35 985.3
20260505205426 24 247 8.0 9.7 0.00 0.00 0.00 36 985.4
20260505204923 25 257 8.0 9.7 0.00 0.00 0.00 34 985.3
20260505204420 25 225 14.5 16.1 0.00 0.00 0.00 34 985.3
20260505203918 25 288 12.9 16.1 0.00 0.00 0.00 35 985.1
20260505203413 24 260 14.5 16.1 0.00 0.00 0.00 36 985.2
20260505202909 24 228 4.8 4.8 0.00 0.00 0.00 35 985.3
20260505202406 24 275 3.2 4.8 0.00 0.00 0.00 35 985.4
20260505201902 24 316 9.7 14.5 0.00 0.00 0.00 36 985.5
20260505201400 24 281 8.0 11.3 0.00 0.00 0.00 35 985.5
20260505200858 23 264 11.3 14.5 0.00 0.00 0.00 36 985.5
20260505200355 23 246 9.7 12.9 0.00 0.00 0.00 36 985.5
20260505195850 23 253 8.0 14.5 0.00 0.00 0.00 35 985.5
20260505195348 23 240 6.4 9.7 0.00 0.00 0.00 36 985.7
20260505194845 23 267 12.9 17.7 0.00 0.00 0.00 37 985.7
20260505194343 24 227 6.4 9.7 0.00 0.00 0.00 36 985.7
20260505193837 23 260 8.0 11.3 0.00 0.00 0.00 36 985.6
20260505193336 23 218 3.2 4.8 0.00 0.00 0.00 37 985.8
20260505192833 23 280 8.0 11.3 0.00 0.00 0.00 37 985.7
20260505192332 23 270 12.9 14.5 0.00 0.00 0.00 37 986.0
20260505191829 24 260 8.0 9.7 0.00 0.00 0.00 37 985.8
20260505191327 25 225 11.3 14.5 0.00 0.00 0.00 37 985.9
20260505190823 24 223 11.3 14.5 0.00 0.00 0.00 36 986.1
20260505190319 23 237 9.7 17.7 0.00 0.00 0.00 36 986.1
20260505185815 24 232 8.0 11.3 0.00 0.00 0.00 38 986.2
20260505185312 23 230 4.8 9.7 0.00 0.00 0.00 38 986.1
20260505184807 23 230 12.9 14.5 0.00 0.00 0.00 40 986.1
20260505184305 23 213 8.0 9.7 0.00 0.00 0.00 40 986.1
20260505183802 23 205 3.2 4.8 0.00 0.00 0.00 40 986.4
20260505183259 23 218 4.8 8.0 0.00 0.00 0.00 39 986.2
20260505182755 23 233 11.3 14.5 0.00 0.00 0.00 40 986.2
20260505182252 23 205 8.0 11.3 0.00 0.00 0.00 41 986.4
20260505181749 23 205 8.0 12.9 0.00 0.00 0.00 40 986.5
20260505181246 23 241 4.8 8.0 0.00 0.00 0.00 39 986.5
20260505180743 23 220 6.4 11.3 0.00 0.00 0.00 41 986.6
20260505180239 23 184 8.0 9.7 0.00 0.00 0.00 39 986.5
20260505175736 23 207 1.6 1.6 0.00 0.00 0.00 40 986.6
20260505175232 23 210 4.8 4.8 0.00 0.00 0.00 40 986.6
20260505174728 22 208 4.8 4.8 0.00 0.00 0.00 44 986.6
20260505174226 22 215 9.7 14.5 0.00 0.00 0.00 43 986.5
20260505173722 22 62 8.0 11.3 0.00 0.00 0.00 44 986.5
20260505173219 22 262 1.6 3.2 0.00 0.00 0.00 43 986.1
20260505172716 21 217 6.4 8.0 0.00 0.00 0.00 44 986.6
20260505172212 22 226 9.7 12.9 0.00 0.00 0.00 43 986.6
20260505171712 22 203 4.8 8.0 0.00 0.00 0.00 42 986.5
20260505171209 22 218 4.8 4.8 0.00 0.00 0.00 42 986.5
20260505170706 21 216 9.7 12.9 0.00 0.00 0.00 43 986.4
20260505170203 21 219 6.4 9.7 0.00 0.00 0.00 43 986.4
20260505165658 21 218 3.2 3.2 0.00 0.00 0.00 44 986.6
20260505165154 21 217 1.6 1.6 0.00 0.00 0.00 45 986.5
20260505164650 21 214 6.4 8.0 0.00 0.00 0.00 44 986.6
20260505164147 21 234 6.4 9.7 0.00 0.00 0.00 43 986.6
20260505163645 20 229 3.2 4.8 0.00 0.00 0.00 45 986.7
20260505163143 21 240 6.4 8.0 0.00 0.00 0.00 44 986.6
20260505162641 20 223 4.8 4.8 0.00 0.00 0.00 45 986.4
20260505162138 20 237 6.4 9.7 0.00 0.00 0.00 46 986.7
20260505161635 20 232 3.2 4.8 0.00 0.00 0.00 45 986.8
20260505161132 20 244 6.4 9.7 0.00 0.00 0.00 45 986.5
20260505160630 20 237 4.8 4.8 0.00 0.00 0.00 46 986.7
20260505160127 20 231 1.6 3.2 0.00 0.00 0.00 46 986.6
20260505153107 20 227 11.3 12.9 0.00 0.00 0.00 47 986.5
20260505152604 20 229 8.0 9.7 0.00 0.00 0.00 47 986.6
20260505152059 20 262 11.3 12.9 0.00 0.00 0.00 46 986.1
20260505151554 20 251 6.4 9.7 0.00 0.00 0.00 45 986.4